Forecast for Flamstone Farm, Bishopstone - last updated: Wed 10 Aug 13:00
Today     DescriptionTempPrecip.Rain risk%Pressure Wind AvGustHumidityVisibility
12:00 BSTSunny day27.1°C - 0 % 1025 mb11 mph39 %13.9 mls
15:00 BSTSunny day30.1°C - 0 % 1023 mb9 mph30 %12.9 mls
18:00 BSTSunny day30.2°C - 0 % 1022 mb10 mph38 %13.4 mls
21:00 BSTClear night28.6°C - 0 % 1023 mb7 mph73 %10.2 mls
Thu 11 Aug     DescriptionTempPrecip.Rain risk%Pressure Wind AvGustHumidityVisibility
00:00 BSTClear night21.2°C - 0 % 1023 mb13 mph65 %16.5 mls
03:00 BSTClear night19.0°C - 0 % 1023 mb13 mph80 %14.5 mls
06:00 BSTSunny day17.1°C - 0 % 1023 mb14 mph78 %12.8 mls
09:00 BSTSunny day24.9°C - 0 % 1023 mb9 mph51 %15.4 mls
12:00 BSTSunny day30.2°C - 0 % 1022 mb10 mph29 %22.4 mls
15:00 BSTSunny day32.0°C - 0 % 1020 mb10 mph25 %21.5 mls
18:00 BSTSunny day32.0°C - 0 % 1019 mb12 mph31 %20.4 mls
21:00 BSTClear night30.0°C - 0 % 1020 mb6 mph62 %16.9 mls
Fri 12 Aug     DescriptionTempPrecip.Rain risk%Pressure Wind AvGustHumidityVisibility
00:00 BSTClear night22.0°C - 0 % 1021 mb12 mph60 %15.7 mls
03:00 BSTClear night19.6°C - 0 % 1020 mb13 mph68 %15.5 mls
06:00 BSTSunny day18.6°C - 0 % 1020 mb14 mph69 %14.7 mls
09:00 BSTSunny day25.6°C - 0 % 1020 mb14 mph48 %17.8 mls
12:00 BSTSunny day30.9°C - 0 % 1019 mb16 mph28 %21.7 mls
15:00 BSTSunny day32.2°C - 0 % 1018 mb16 mph26 %22.7 mls
18:00 BSTSunny day32.2°C - 0 % 1017 mb14 mph34 %24.9 mls
21:00 BSTClear night28.9°C - 0 % 1018 mb7 mph53 %22.1 mls
Sat 13 Aug     DescriptionTempPrecip.Rain risk%Pressure Wind AvGustHumidityVisibility
00:00 BSTClear night23.9°C - 0 % 1018 mb12 mph54 %22.0 mls
03:00 BSTClear night20.3°C - 0 % 1017 mb13 mph65 %20.4 mls
06:00 BSTSunny day19.7°C - 0 % 1017 mb13 mph68 %20.1 mls
09:00 BSTSunny day25.6°C - 0 % 1017 mb16 mph48 %22.3 mls
12:00 BSTSunny day31.0°C - 0 % 1016 mb19 mph28 %25.0 mls
15:00 BSTSunny day31.6°C - 1 % 1015 mb22 mph24 %25.3 mls
18:00 BSTSunny day31.4°C - 1 % 1014 mb14 mph28 %25.4 mls
21:00 BSTPartly cloudy (night)28.8°C - 1 % 1014 mb8 mph47 %24.3 mls
Sun 14 Aug     DescriptionTempPrecip.Rain risk%Pressure Wind AvGustHumidityVisibility
00:00 BSTPartly cloudy (night)24.2°C - 0 % 1013 mb10 mph49 %23.2 mls
03:00 BSTPartly cloudy (night)20.3°C - 0 % 1011 mb12 mph53 %22.4 mls
06:00 BSTPartly cloudy (day)19.8°C - 1 % 1011 mb12 mph59 %21.1 mls
09:00 BSTCloudy26.2°C - 4 % 1010 mb15 mph43 %23.0 mls
12:00 BSTCloudy30.5°C - 6 % 1009 mb19 mph28 %24.6 mls
15:00 BSTCloudy30.4°C - 7 % 1007 mb18 mph33 %23.9 mls
18:00 BSTCloudy28.9°C - 8 % 1006 mb13 mph42 %22.7 mls
21:00 BSTCloudy25.9°C - 8 % 1006 mb11 mph62 %20.0 mls
Mon 15 Aug     DescriptionTempPrecip.Rain risk%Pressure Wind AvGustHumidityVisibility
00:00 BSTCloudy21.9°C - 8 % 1006 mb7 mph71 %18.1 mls
03:00 BSTCloudy19.5°C - 9 % 1005 mb8 mph78 %16.4 mls
06:00 BSTPartly cloudy (day)19.4°C - 7 % 1004 mb9 mph79 %16.1 mls
09:00 BSTPartly cloudy (day)22.6°C - 7 % 1004 mb15 mph63 %18.7 mls
12:00 BSTPartly cloudy (day)25.1°C - 13 % 1004 mb20 mph52 %16.0 mls
15:00 BSTLight rain shower (day)25.0°C1.0 mm34 % 1004 mb21 mph54 %20.1 mls
18:00 BSTCloudy24.5°C - 12 % 1004 mb18 mph60 %19.9 mls
21:00 BSTCloudy22.6°C - 8 % 1005 mb11 mph80 %17.1 mls
Tue 16 Aug     DescriptionTempPrecip.Rain risk%Pressure Wind AvGustHumidityVisibility
00:00 BSTCloudy19.2°C - 10 % 1006 mb11 mph90 %13.0 mls
03:00 BSTCloudy17.6°C - 10 % 1006 mb11 mph92 %9.6 mls
06:00 BSTCloudy17.2°C - 11 % 1006 mb11 mph93 %9.6 mls
09:00 BSTLight rain shower (day)20.0°C0.6 mm31 % 1007 mb16 mph77 %16.4 mls
12:00 BSTLight rain shower (day)23.1°C1.1 mm33 % 1008 mb20 mph61 %17.1 mls
15:00 BSTLight rain shower (day)22.7°C1.2 mm33 % 1008 mb19 mph61 %18.9 mls
18:00 BSTLight rain shower (day)22.3°C0.7 mm32 % 1008 mb16 mph64 %18.9 mls
21:00 BSTCloudy21.3°C - 29 % 1009 mb12 mph76 %16.4 mls
Never base important decisions that could result in harm to people or property on this weather information.